KUIPER-00021 (63736 NORAD) Tracking and Keplerian Element Data

This shows tracking and keplerian element data for the satellite.

Feedback or suggestion? Click here.




ElementValue
Catalog63736
NameKUIPER-00021
Epoch Orbit3568
Epoch Day354.03298375
Epoch Year2025
RAAN96.3207
Inclination51.8991
Eccentricity0.0007196
Argument of Perigee168.6219
Mean Anonmoly191.4907
Mean Motion14.79906221
Decay Rate5.876E-05
L11 63736U 25088N 25354.03298375 .00005876 00000+0 79952-3 0 9994
L22 63736 51.8991 96.3207 0007196 168.6219 191.4907 14.79906221 35687



Live tracking and technical data element details for KUIPER-00021 (NORAD 63736). KUIPER-00021 can be tracked NOW for your location showing map with azimuth and elevation plus other details from your city location.







IsCatalogInMostPopularTable: catalog: 63736, numindb: 5
Update: records affected: 1



GetName: 63736 KUIPER-00021

Hit Count: updated at: Tue, 21 Apr 2026 18:56:21 GMT